Location: Unspecified
(0.0000°N, 0.0000°E)
Time: 15:06:27
(UTC+02:00)

DELTA 2 R/B (1) - Visible Passes

Search period start: 28 August 2014 00:00
Search period end: 07 September 2014 00:00
Orbit: 792 x 803 km, 39.6° (Epoch: 25 August)

Date Brightness Start Highest point End Pass type
(mag) Time Alt. Az. Time Alt. Az. Time Alt. Az.
28 Aug 3.9 21:28:18 10° SSW 21:33:24 43° SE 21:33:24 43° SE visible
29 Aug 4.1 20:57:50 10° SSW 21:03:00 38° SE 21:05:37 24° E visible
29 Aug 5.9 22:44:31 10° WSW 22:46:30 19° W 22:46:30 19° W visible
30 Aug 4.3 20:27:23 10° SSW 20:32:25 34° SE 20:37:25 10° ENE visible
30 Aug 4.9 22:13:45 10° WSW 22:18:46 34° NW 22:18:49 34° NW visible
31 Aug 6.4 07:21:33 10° NNE 07:23:43 12° NE 07:25:52 10° ENE visible
31 Aug 4.8 21:43:01 10° WSW 21:48:11 38° NW 21:51:10 22° NNE visible
01 Sep 6.5 06:51:56 10° NNE 06:53:06 11° NE 06:54:16 10° NE visible
01 Sep 4.7 21:12:19 10° WSW 21:17:35 43° NW 21:22:51 10° NNE visible
02 Sep 4.5 20:41:37 10° WSW 20:47:00 49° NW 20:52:22 10° NNE visible
03 Sep 4.2 07:33:03 10° NW 07:38:29 59° NE 07:43:56 10° ESE visible
04 Sep 4.4 07:02:33 10° NNW 07:07:54 52° NE 07:13:17 10° ESE visible
05 Sep 4.5 06:32:19 11° NNW 06:37:19 45° NE 06:42:36 10° ESE visible
05 Sep 6.6 21:01:25 10° NW 21:01:50 10° NW 21:02:14 10° NW visible
06 Sep 4.7 06:04:40 29° N 06:06:44 40° NE 06:11:54 10° ESE visible
06 Sep 6.4 20:29:19 10° WNW 20:31:12 12° NW 20:33:05 10° NNW visible
